Погода в Турку

Финляндия     60˚27′05″N   22˚16′00″E
темп.,
°C
ветер,
м/с
пор.,
м/с
влажн.,
%
обл.,
%
осадки,
мм/ч
давл.,
гПа
погр.,
м
5 декабря, сб
сб523:00+2˚юв71396100 2.8 1011657
02:00+4˚ююв61392100 5.8 1011705
05:00+5˚ююв51292100 1.8 1010791
08:00+5˚ююв61187100 2.4 1011814
11:00+5˚ю51188100 0.1 1012741
14:00+6˚ю51188100 0.1 1013688
17:00+6˚ю51089100 0.0 1014611
20:00+6˚ююв51190100 0.0 1015647
6 декабря, вс
вс623:00+6˚ююв51091100 0.1 1015552
02:00+6˚ююв61290100 0.1 1016653
05:00+7˚ююв61390100 0.1 1016650
08:00+7˚ююв61290100 0.1 1017635
11:00+7˚ююв61289100 0.0 1018660
14:00+7˚ююв51289100 0.1 1019652
17:00+6˚ююв61289100 0.1 1020663
20:00+6˚ююв61387100 0.1 1021715
7 декабря, пн
пн723:00+5˚ююв61285100 0.0 1021726
02:00+5˚ююв61184100 0.0 1022714
05:00+4˚ююв61179100 0.0 1022821
08:00+4˚ююв51176100 0.0 1023801
11:00+3˚ююв61273100 0.0 1023784
14:00+2˚юв6127592 0.0 1023723
17:00+1˚юв5117643 0.0 1023683
20:00+1˚юв5117563 0.0 1024687
8 декабря, вт
вт823:00+1˚юв5117741 0.0 1024751
02:00+1˚юв5117861 0.0 1025743
05:00+1˚юв5117893 0.0 1025706
08:00+1˚юв5107694 0.0 1025823
11:00+1˚юв597891 0.0 1026902
14:00+2˚юв598196 0.1 1026821
17:00+1˚юв5108194 0.0 1026688
20:00юв498182 0.0 1027543
9 декабря, ср
ср923:00юв498020 0.0 1027504
02:00юв497817 0.0 1027572
05:00юв497711 0.0 1026513
08:00−1˚юв497811 0.0 1026497
11:00ююв477663 0.0 1026882
14:00ююв489281 0.2 1026547
17:00ююв3688100 0.3 1026561
20:00юв4787100 0.4 1026507